Dewpoint
60 66 67 68 67 66 68 70 69 69 68 67 69 70 63 61 66 69 70 73 73 73 73 74 75 75 74 74 74 75 74 75 75 74 74 74 73 74 74 72 72 75 72 72 73 73 75 77 75 74 75 76 77 77 79 79 79 79 79 79 79 79 77
63 64 65 66 66 66 66 69 69 69 68 68 70 69 68 64 67 67 71 73 73 73 73 73 74 75 74 74 74 75 75 75 75 75 73 76 76 76 74 73 74 75 77 74 75 75 75 75 74 74 74 76 75 78 77 78 78 78 77 79 77 79 78
64 66 64 64 65 67 69 69 67 67 70 69 67 67 66 70 69 69 71 71 73 74 73 73 75 74 73 74 73 74 74 73 74 72 72 70 71 68 70 73 72 71 71 72 75 73 74 73 77 76 75 74 73 78 78 78 78 77 78 79 77 76 78
64 65 67 65 66 68 68 69 69 67 69 70 69 69 68 71 68 70 70 71 72 74 73 72 73 73 73 73 73 73 73 74 73 71 70 70 70 69 70 72 73 71 72 71 69 70 69 74 74 77 76 76 76 76 76 77 76 77 77 79 77 77 78
62 64 65 65 65 66 68 69 70 70 68 67 67 69 69 70 67 65 66 67 71 72 72 72 71 72 73 73 71 71 72 72 72 72 71 70 72 71 70 67 68 68 71 68 73 74 77 74 73 75 75 77 74 76 76 77 76 78 77 79 78 76 76
57 63 64 62 64 66 67 68 69 70 69 68 67 66 68 66 66 64 64 68 68 69 72 72 71 72 72 72 71 70 73 74 74 73 71 72 72 69 68 69 68 68 66 69 69 69 73 72 71 72 72 71 71 71 72 74 74 75 77 78 78 75 73
57 59 64 62 64 65 66 68 69 71 72 69 67 67 67 66 66 64 64 65 68 70 70 70 69 68 71 72 72 73 73 72 73 71 70 68 69 69 69 69 70 67 66 70 69 69 69 71 72 73 73 71 73 70 73 75 74 74 77 78 78 78 78
57 58 59 61 65 65 65 66 67 68 70 68 67 66 66 65 65 66 66 66 66 66 66 67 68 68 70 71 71 70 70 71 71 72 70 67 67 68 68 68 69 70 69 67 69 69 67 71 69 71 72 71 72 72 72 75 76 72 74 76 77 76 72
57 58 59 60 62 62 64 66 66 66 66 69 69 68 66 66 65 65 65 68 69 70 71 72 74 73 72 71 71 72 69 71 72 72 70 67 65 64 64 65 67 68 69 65 64 68 68 69 69 73 73 72 73 74 74 76 73 73 73 74 76 75 73
56 57 59 59 61 62 62 64 67 67 67 66 68 69 70 69 68 67 68 67 66 68 68 68 71 74 72 73 72 69 69 72 72 70 69 67 65 64 63 63 65 67 67 65 63 65 68 70 69 72 74 73 74 75 73 76 73 72 73 75 75 75 75
55 56 58 58 59 60 61 61 61 64 66 66 66 66 68 70 70 69 70 71 70 69 68 69 71 71 73 73 72 74 75 70 68 67 69 67 64 63 62 62 61 65 65 64 63 63 66 69 71 72 73 69 72 73 73 73 73 74 71 72 73 74 73
54 54 55 56 58 59 59 60 60 61 62 63 63 64 66 67 69 70 69 69 69 70 72 71 71 70 71 71 72 72 74 74 72 67 65 67 65 63 62 61 60 61 64 64 64 64 63 67 67 69 72 71 71 72 73 74 73 75 74 71 71 73 72
53 54 54 54 56 57 59 59 59 59 60 60 62 63 64 64 65 68 72 70 70 71 71 73 73 73 73 72 71 73 74 74 73 72 66 65 66 64 62 61 59 59 62 64 64 62 59 62 67 68 70 71 70 70 72 73 72 75 75 74 73 73 73
55 52 53 54 54 55 56 57 58 58 58 60 61 63 64 65 66 67 67 70 72 70 71 72 73 72 72 73 73 73 73 74 74 74 72 70 68 68 63 61 61 62 63 65 64 62 59 57 62 66 66 69 69 71 71 74 73 75 76 75 73 72 72
49 50 52 52 54 55 56 55 57 58 57 58 59 63 67 68 68 69 69 69 69 72 71 72 72 73 72 73 73 73 73 74 75 75 73 73 73 71 68 65 64 65 64 67 64 61 61 59 56 64 65 66 70 70 70 70 72 72 74 75 74 73 71
47 48 50 51 53 53 55 56 56 57 57 58 58 62 64 64 66 68 68 69 67 67 72 72 73 73 73 72 73 73 74 74 74 73 74 74 74 73 72 70 67 60 62 63 63 66 67 65 63 60 64 66 68 69 68 68 68 72 69 71 74 74 70
48 48 50 51 53 52 54 55 56 56 57 58 58 58 62 62 63 66 64 67 67 65 66 68 73 72 71 73 73 74 75 75 74 73 73 73 74 74 73 72 71 67 69 68 66 68 73 67 65 61 60 64 65 67 66 67 65 68 64 65 68 72 73
50 50 51 51 52 53 52 53 55 55 54 53 56 59 60 62 63 63 63 63 64 64 65 65 68 71 72 72 73 73 73 74 74 74 74 73 73 73 74 74 72 72 70 71 69 73 69 67 67 68 63 59 62 64 65 66 67 62 63 64 64 69 73
48 50 50 52 52 53 51 52 53 55 54 54 53 55 56 55 57 61 62 63 63 64 63 64 65 67 68 70 71 72 73 73 73 73 73 72 73 74 74 74 73 73 73 72 71 72 71 72 72 70 68 66 69 64 65 66 64 60 61 62 63 63 70
45 47 49 50 51 52 53 52 53 54 55 57 54 52 54 56 55 58 60 62 64 63 64 64 64 65 65 67 68 69 69 69 70 72 73 74 74 74 74 74 74 74 74 74 73 72 71 71 71 71 74 71 70 72 69 71 67 59 59 60 61 62 65
46 47 47 49 51 51 52 51 52 54 54 52 53 53 55 55 53 57 58 59 58 60 63 62 63 64 64 67 69 69 69 68 70 71 72 73 73 74 74 73 73 73 74 74 74 71 72 73 73 72 72 72 70 70 67 65 64 58 57 58 59 60 63
42 43 45 45 49 50 52 50 51 52 53 54 53 50 53 55 54 54 54 54 54 58 59 61 62 62 63 63 64 66 68 69 69 70 71 71 72 72 73 73 73 73 74 74 75 73 74 75 73 73 73 74 73 73 71 70 65 61 57 56 57 60 69
41 42 43 46 45 47 50 51 52 53 55 54 52 51 52 54 55 55 55 53 52 57 57 58 60 61 63 62 61 62 64 66 68 68 68 70 71 72 72 72 72 74 74 73 74 73 73 73 73 75 73 73 73 72 75 73 70 64 59 55 55 59 69
40 41 41 42 46 46 48 49 49 49 48 52 55 52 55 53 55 56 58 56 52 55 57 57 59 60 62 60 60 61 63 66 66 67 66 69 70 71 73 73 73 73 74 73 73 74 73 73 73 74 74 72 72 72 73 72 71 63 58 54 55 61 70
40 40 41 42 45 44 44 49 50 48 48 48 49 54 56 59 59 55 57 57 55 55 58 58 59 59 59 59 59 60 62 64 67 66 65 68 70 71 71 73 73 74 75 74 73 73 74 74 73 73 74 73 72 73 73 72 70 61 57 54 53 59 68
43 42 42 42 44 43 48 50 50 48 46 48 51 51 52 54 56 57 57 58 58 57 58 59 60 60 61 60 60 61 63 63 66 66 66 68 68 70 71 71 70 69 71 72 71 72 73 74 73 73 73 72 73 72 71 71 71 70 56 54 53 54 69
43 43 44 43 44 49 47 47 48 46 46 51 54 50 51 51 53 54 57 59 59 60 59 61 62 63 63 62 59 58 58 59 61 61 62 67 69 70 71 70 70 70 68 67 70 71 72 71 72 73 72 73 73 73 74 72 73 75 57 54 53 53 58
44 44 44 46 48 48 48 46 48 48 48 50 50 52 53 55 56 56 57 57 57 58 59 61 62 63 62 62 60 59 58 58 61 61 59 65 69 71 71 72 72 71 68 69 68 69 69 70 71 70 71 72 72 74 75 75 75 74 62 56 54 52 52
46 45 46 46 47 47 47 47 47 48 49 49 50 52 54 55 57 56 57 56 57 58 60 59 61 62 61 61 60 60 59 60 58 58 57 61 66 69 69 71 71 71 72 71 71 71 71 70 70 71 71 72 74 74 74 76 77 69 73 58 53 52 51
46 46 45 45 45 47 47 47 47 48 49 49 52 53 54 55 56 57 57 57 59 58 59 59 59 61 60 61 61 59 58 56 57 58 61 63 67 66 67 68 70 71 72 71 71 70 69 70 70 71 71 71 72 73 74 76 77 72 68 69 55 52 51
45 45 45 46 45 48 47 46 48 48 49 50 52 53 54 54 54 55 56 57 59 59 58 59 58 59 59 59 58 59 57 59 61 62 63 64 64 65 66 68 69 70 71 72 71 70 70 71 71 71 71 71 72 73 74 75 77 76 72 65 61 54 52
45 46 45 45 47 47 47 47 47 48 49 50 50 52 54 54 53 54 55 56 58 58 57 58 60 59 58 57 58 57 56 56 55 55 60 60 63 65 68 66 65 67 70 71 71 71 70 69 68 68 69 71 71 72 73 74 74 76 76 72 69 62 54
45 45 46 46 47 48 48 48 47 47 48 48 50 50 50 51 52 55 56 57 56 56 59 59 59 59 59 59 55 56 57 57 55 56 57 59 58 59 60 61 64 66 67 67 67 67 67 66 66 67 67 67 67 69 72 71 73 74 74 76 76 75 70
45 46 47 47 48 48 48 48 48 48 49 50 50 51 51 51 51 52 53 53 54 54 58 58 57 55 56 55 55 56 56 56 58 58 55 55 55 56 58 59 59 61 64 64 63 64 65 65 66 66 65 65 66 67 68 70 72 73 73 74 75 75 75
45 46 46 47 47 48 48 47 48 49 49 50 50 51 51 52 52 52 54 54 54 57 57 57 58 58 55 55 56 57 59 57 56 55 55 57 59 59 60 59 58 61 62 62 64 64 62 62 64 64 64 63 65 65 66 67 69 70 58 65 59 70 74
45 45 46 47 47 48 49 49 49 49 49 50 51 51 51 51 52 53 52 54 55 56 57 57 57 56 55 55 55 55 55 56 55 57 58 56 56 57 58 60 57 60 62 62 63 59 55 58 64 64 64 63 63 64 63 64 67 60 55 53 52 52 52
44 45 46 46 48 48 48 48 50 50 50 51 52 52 54 55 53 53 53 55 55 54 56 57 57 56 54 55 53 55 56 55 55 56 59 58 58 59 59 59 61 53 50 53 57 53 49 48 50 51 52 60 61 61 57 56 54 52 51 50 50 49 48
45 46 46 47 47 48 48 49 49 49 49 50 51 52 53 53 53 54 52 54 55 56 57 57 56 55 53 53 55 59 58 56 57 57 57 58 58 59 59 58 58 60 55 51 50 49 47 47 47 47 47 48 52 58 60 57 53 51 49 48 47 47 47